COSMOS 2516 (753)

Last updated on Jan. 22, 2021, 6:27 a.m. UTC

1 41554U 16032A   21021.48557970  .00000034  00000-0  00000-0 0  9999
2 41554  64.0396 259.2698 0011780 219.1928  12.5358  2.13106629 36181
UTC
Height (km)
Latitude
Longitude
Inclination
Orbital Period
UTC large
Height (km)
Speed (km/s)
/
Latitude / Longitude
Inclination (degrees)
Orbital Period (minutes)
Azimuth
Elevation
Range (km)
Doppler Factor
iOS Compass Heading
iOS Angle

Next 30 passes for location: Hong Kong

Rise time Rise Azimuth (degrees) Set time Set Azimuth (degrees) Duration Max altitude (degrees)

No matching passes for this satellites